[[{"header":{"parameterUnit":"m.s-1","parameterCategory":1,"la1":30.2991,"la2":30.254,"lo1":-89.0895,"lo2":-89.0444,"dy":0.0017,"dx":0.0017,"nx":28,"ny":28,"refTime":"2023-07-24T09:00:00:Z","depth":0,"parameterNumber":2,"parameterNumberName":"U-component_of_WINDS"},"data":[0,0,0,0,0,0,0,0,0,0,0,0,0,0,0,0,0,0,0,0,0,0,0,0,0,0,0,0,0,0,0,0,0,0,0,0,0,0,0,0,0,0,0,0,0,0,0,0,0,0,0,0,0,0,0,0,0,0,-1.1112,-1.1113,0,-1.1125,-1.1125,-1.1126,-1.1053,-1.1051,-1.1048,-1.1046,-1.1062,-1.1064,-1.1067,0,0,0,0,0,0,0,0,0,0,0,0,0,-1.1026,-1.1028,-1.1112,-1.1113,-1.1113,-1.1125,-1.1125,-1.1126,-1.1053,-1.105,-1.1048,-1.1046,-1.1061,-1.1064,-1.1067,0,0,0,0,0,0,0,0,0,0,0,0,0,-1.1054,-1.1028,-1.1112,-1.1078,-1.1075,-1.1125,-1.1125,-1.1126,-1.1054,-1.105,-1.1047,-1.1044,-1.106,-1.1064,-1.1067,-1.1152,0,0,-1.1078,-1.108,0,0,0,0,0,0,0,0,-1.1052,-1.1057,-1.1083,-1.108,-1.1077,-1.1084,-1.11,-1.1135,-1.1054,-1.1062,-1.1046,-1.1043,-1.1072,-1.1074,-1.1084,-1.1153,-1.1153,-1.1078,-1.1081,-1.1082,-1.1083,0,0,0,0,0,0,0,-1.105,-1.1056,-1.1117,-1.1083,-1.108,-1.1062,-1.1063,-1.1107,-1.1084,-1.1061,-1.1056,-1.1058,-1.107,-1.1081,-1.1084,-1.1154,-1.1078,-1.1081,-1.1084,-1.1085,-1.1292,-1.1295,0,0,0,0,0,0,-1.1053,-1.1055,-1.1117,-1.1118,-1.1057,-1.1066,-1.1067,-1.1085,-1.1084,-1.108,-1.1061,-1.1055,-1.1076,-1.108,-1.1084,-1.1183,-1.1082,-1.1085,-1.1087,-1.1288,-1.1292,-1.1296,0,0,0,0,0,0,-1.1051,-1.1059,-1.1117,-1.1085,-1.1091,-1.1071,-1.1092,-1.1087,-1.1098,-1.1083,-1.1079,-1.1076,-1.1074,-1.1079,-1.1135,-1.1183,-1.1087,-1.109,-1.1284,-1.129,-1.1294,-1.1382,0,0,0,0,0,0,-1.1049,-1.1059,-1.1091,-1.1086,-1.1093,-1.1168,-1.1095,-1.1089,-1.1104,-1.1096,-1.1096,-1.1094,-1.1072,-1.113,-1.1139,-1.1186,-1.1093,-1.128,-1.1287,-1.1293,-1.1375,-1.139,-1.1402,0,0,0,0,0,-1.1046,-1.1116,-1.1093,-1.1101,-1.1132,-1.1171,-1.1175,-1.1147,-1.1108,-1.114,-1.113,-1.1094,-1.1175,-1.1137,-1.1146,-1.1194,-1.1277,-1.1285,-1.1292,-1.1369,-1.1387,-1.1402,0,0,0,0,0,0,-1.1128,-1.1115,-1.1089,-1.1159,-1.1167,-1.1158,-1.1198,-1.1167,-1.1187,-1.1179,-1.1144,-1.1145,-1.1207,-1.1206,-1.1163,-1.1276,-1.1219,-1.1229,-1.1275,-1.1292,-1.1305,-1.1305,-1.1096,0,0,0,0,0,-1.1154,-1.1186,-1.1172,-1.1236,-1.124,-1.1219,-1.1235,-1.1213,-1.1219,-1.1222,-1.1217,-1.1225,-1.1252,-1.1272,-1.1296,-1.1373,-1.1373,-1.1411,-1.1425,-1.1436,-1.1446,-1.1486,-1.1504,-1.1321,-1.1321,-1.1321,0,0,-1.1209,-1.1205,-1.1228,-1.1252,-1.1255,-1.1289,-1.1222,-1.1261,-1.1286,-1.1228,-1.1281,-1.1277,-1.1284,-1.1352,-1.1381,-1.1353,-1.1495,-1.1446,-1.1455,-1.1458,-1.1496,-1.1513,-1.1529,-1.1326,-1.1325,-1.1324,0,0,-1.1326,-1.1326,-1.1379,-1.1383,-1.1388,-1.1372,-1.1385,-1.1381,-1.1376,-1.1428,-1.1385,-1.1414,-1.1462,-1.1469,-1.1478,-1.1596,-1.1563,-1.1604,-1.1676,-1.1717,-1.1731,-1.1744,-1.1786,-1.1802,-1.1613,-1.1614,-1.1614,0,-1.1394,-1.1444,-1.141,-1.1452,-1.1464,-1.1411,-1.1464,-1.147,-1.1483,-1.1493,-1.146,-1.1518,-1.1519,-1.1587,-1.1615,-1.1625,-1.1638,-1.1606,-1.1731,-1.1744,-1.1755,-1.1796,-1.1812,-1.1619,-1.1618,-1.1618,-1.1617,0,-1.1527,-1.1562,-1.1603,-1.1616,-1.1633,-1.168,-1.1654,-1.1675,-1.165,-1.1638,-1.1692,-1.169,-1.1714,-1.1727,-1.1705,-1.1792,-1.1774,-1.1737,-1.168,-1.1778,-1.1816,-1.1831,-1.1626,-1.1624,-1.1623,-1.1622,0,0,-1.17,-1.1691,-1.1708,-1.1713,-1.1713,-1.1739,-1.1783,-1.1805,-1.1823,-1.1833,-1.187,-1.1911,-1.1876,-1.1887,-1.1864,-1.1899,-1.1992,-1.1857,-1.1856,-1.1883,-1.2089,-1.2119,-1.2138,-1.1969,-1.1972,-1.1974,-1.2089,0,-1.1816,-1.1891,-1.1861,-1.1939,-1.1971,-1.192,-1.1958,-1.1963,-1.1952,-1.1977,-1.1965,-1.1995,-1.1946,-1.1952,-1.1984,-1.1974,-1.2034,-1.1965,-1.2005,-1.2006,-1.2007,-1.2157,-1.2189,-1.2298,-1.2104,-1.2106,-1.2108,0,-1.1962,-1.1976,-1.2058,-1.2051,-1.2063,-1.2098,-1.2115,-1.2139,-1.2143,-1.2133,-1.2144,-1.2113,-1.2156,-1.2097,-1.2156,-1.211,-1.2124,-1.2121,-1.2125,-1.2129,-1.2065,-1.2167,-1.2332,-1.2349,-1.213,-1.2129,-1.2127,0,-1.2081,-1.2121,-1.2174,-1.218,-1.2173,-1.2199,-1.2198,-1.2198,-1.2213,-1.2227,-1.2236,-1.2255,-1.2267,-1.2283,-1.2257,-1.2217,-1.2321,-1.226,-1.2314,-1.2315,-1.2341,-1.234,-1.2512,-1.2346,-1.2346,-1.2346,-1.2346,0,-1.2215,-1.2267,-1.2228,-1.2261,-1.2318,-1.2282,-1.2339,-1.2332,-1.2332,-1.2363,-1.2319,-1.2349,-1.2313,-1.234,-1.232,-1.2373,-1.2378,-1.2371,-1.2366,-1.2377,-1.2378,-1.2387,-1.238,-1.235,-1.2349,-1.2348,-1.2348,0,-1.236,-1.2336,-1.2391,-1.2379,-1.2377,-1.2419,-1.2409,-1.244,-1.2424,-1.2464,-1.2471,-1.2449,-1.2478,-1.2453,-1.2481,-1.2468,-1.2538,-1.2521,-1.2537,-1.2533,-1.259,-1.2586,-1.2775,-1.2799,-1.2617,-1.2619,-1.262,0,-1.2448,-1.2487,-1.2478,-1.2495,-1.2496,-1.2525,-1.2538,-1.2504,-1.2521,-1.2526,-1.2556,-1.2581,-1.2599,-1.2648,-1.2634,-1.2655,-1.2639,-1.2704,-1.2643,-1.2652,-1.2642,-1.2641,-1.2645,-1.2718,-1.272,-1.2722,-1.2723,0,-1.2608,-1.2593,-1.2615,-1.2632,-1.2649,-1.2661,-1.2669,-1.2686,-1.2651,-1.2671,-1.2699,-1.2714,-1.2741,-1.2767,-1.2783,-1.2782,-1.2748,-1.2742,-1.2756,-1.2769,-1.2777,-1.2775,-1.2573,-1.2739,-1.2737,-1.2736,-1.2735,-1.2735,-1.2728,-1.276,-1.2759,-1.2784,-1.2786,-1.2794,-1.2822,-1.2809,-1.2832,-1.2852,-1.2829,-1.2864,-1.2865,-1.2883,-1.2886,-1.2913,-1.2886,-1.2906,-1.2912,-1.2918,-1.2927,-1.2771,-1.2915,-1.2915,-1.2914,-1.2914,-1.2914,0,-1.2887,-1.2883,-1.2906,-1.2918,-1.2938,-1.2901,-1.2908,-1.2927,-1.2958,-1.2961,-1.2979,-1.3012,-1.3035,-1.3022,-1.3043,-1.3067,-1.3052,-1.3074,-1.3073,-1.3074,-1.2949,-1.2935,-1.3086,-1.3086,-1.3086,-1.3086,-1.3086,-1.3086,-1.2972,-1.3024,-1.3009,-1.3061,-1.3056,-1.3089,-1.3096,-1.3104,-1.3106,-1.3144,-1.3163,-1.3153,-1.315,-1.317,-1.319,-1.3186,-1.3196,-1.3225,-1.3215,-1.3099,-1.3082,-1.3066,-1.3053,-1.3227,-1.3227,-1.3337,-1.3338,-1.3339]},{"header":{"parameterUnit":"m.s-1","parameterCategory":1,"la1":30.2991,"la2":30.254,"lo1":-89.0895,"lo2":-89.0444,"dy":0.0017,"dx":0.0017,"nx":28,"ny":28,"refTime":"2023-07-24T09:00:00:Z","depth":0,"parameterNumber":3,"parameterNumberName":"V-component_of_WINDS"},"data":[0,0,0,0,0,0,0,0,0,0,0,0,0,0,0,0,0,0,0,0,0,0,0,0,0,0,0,0,0,0,0,0,0,0,0,0,0,0,0,0,0,0,0,0,0,0,0,0,0,0,0,0,0,0,0,0,0,0,-3.2395,-3.2396,0,-3.2464,-3.2465,-3.2466,-3.2422,-3.242,-3.2418,-3.2416,-3.2483,-3.2486,-3.249,0,0,0,0,0,0,0,0,0,0,0,0,0,-3.2223,-3.2226,-3.2395,-3.2396,-3.2397,-3.2464,-3.2465,-3.2466,-3.2422,-3.242,-3.2417,-3.2415,-3.2481,-3.2486,-3.249,0,0,0,0,0,0,0,0,0,0,0,0,0,-3.2295,-3.2227,-3.2395,-3.2383,-3.2383,-3.2464,-3.2465,-3.2466,-3.2423,-3.242,-3.2416,-3.2414,-3.248,-3.2485,-3.2491,-3.2586,0,0,-3.2508,-3.251,0,0,0,0,0,0,0,0,-3.2291,-3.2301,-3.2384,-3.2384,-3.2384,-3.2431,-3.2428,-3.2506,-3.2423,-3.2407,-3.2416,-3.2412,-3.2468,-3.2474,-3.2494,-3.2589,-3.2592,-3.2508,-3.2512,-3.2514,-3.2515,0,0,0,0,0,0,0,-3.2286,-3.2298,-3.2422,-3.2385,-3.2385,-3.2373,-3.238,-3.2443,-3.2454,-3.2409,-3.2406,-3.2414,-3.2467,-3.2488,-3.2495,-3.2593,-3.2508,-3.2513,-3.2516,-3.2519,-3.2769,-3.2772,0,0,0,0,0,0,-3.2282,-3.2294,-3.242,-3.2424,-3.2329,-3.2379,-3.2387,-3.2419,-3.2453,-3.2455,-3.2417,-3.2412,-3.248,-3.2488,-3.2497,-3.261,-3.2514,-3.2519,-3.2522,-3.2766,-3.277,-3.2774,0,0,0,0,0,0,-3.2279,-3.2294,-3.2417,-3.2359,-3.2373,-3.2385,-3.2422,-3.2422,-3.2443,-3.2459,-3.2461,-3.2437,-3.2478,-3.2489,-3.2564,-3.2612,-3.2522,-3.2527,-3.2762,-3.2767,-3.2772,-3.2838,0,0,0,0,0,0,-3.2274,-3.2293,-3.233,-3.236,-3.2377,-3.2485,-3.2425,-3.2426,-3.2453,-3.2448,-3.2479,-3.2481,-3.2477,-3.2556,-3.257,-3.2618,-3.2531,-3.2758,-3.2764,-3.277,-3.2832,-3.2845,-3.2856,0,0,0,0,0,-3.2268,-3.2345,-3.2332,-3.2348,-3.2424,-3.2488,-3.2497,-3.2492,-3.2457,-3.2494,-3.2505,-3.248,-3.2605,-3.2564,-3.2579,-3.263,-3.2755,-3.2762,-3.277,-3.2826,-3.2842,-3.2855,0,0,0,0,0,0,-3.232,-3.2349,-3.2335,-3.2424,-3.2454,-3.248,-3.2526,-3.2509,-3.2548,-3.2541,-3.2532,-3.254,-3.2618,-3.2631,-3.2586,-3.2723,-3.2674,-3.2685,-3.2712,-3.2727,-3.2739,-3.2734,-3.2535,0,0,0,0,0,-3.2342,-3.2393,-3.2415,-3.2492,-3.2508,-3.2515,-3.2542,-3.2536,-3.2566,-3.2578,-3.2593,-3.2622,-3.2668,-3.2698,-3.2741,-3.2833,-3.2839,-3.2875,-3.2887,-3.2897,-3.2907,-3.2955,-3.2972,-3.2798,-3.2798,-3.2798,0,0,-3.2388,-3.241,-3.2442,-3.2503,-3.2525,-3.2577,-3.2525,-3.2582,-3.262,-3.2586,-3.2658,-3.2671,-3.2702,-3.2786,-3.2824,-3.28,-3.2956,-3.2907,-3.2915,-3.2919,-3.2965,-3.2981,-3.2996,-3.2803,-3.2803,-3.2802,0,0,-3.2497,-3.252,-3.2586,-3.2609,-3.2644,-3.2648,-3.2664,-3.2693,-3.2701,-3.2773,-3.2749,-3.2793,-3.2872,-3.2895,-3.2918,-3.3036,-3.3014,-3.305,-3.3113,-3.3161,-3.3175,-3.3187,-3.3229,-3.3244,-3.306,-3.306,-3.306,0,-3.2549,-3.2627,-3.2622,-3.2681,-3.2708,-3.268,-3.2747,-3.2769,-3.2816,-3.2835,-3.2807,-3.2906,-3.2925,-3.3014,-3.3043,-3.3062,-3.3079,-3.3047,-3.3174,-3.3186,-3.3197,-3.3236,-3.3252,-3.3064,-3.3063,-3.3063,-3.3063,0,-3.2689,-3.2744,-3.2793,-3.284,-3.2872,-3.2934,-3.2937,-3.297,-3.2961,-3.2968,-3.3042,-3.3064,-3.3111,-3.3131,-3.3123,-3.3219,-3.3203,-3.3175,-3.3125,-3.3217,-3.3254,-3.327,-3.307,-3.3068,-3.3067,-3.3066,0,0,-3.2833,-3.2876,-3.2894,-3.2915,-3.2952,-3.2993,-3.3053,-3.31,-3.3129,-3.3162,-3.3212,-3.3279,-3.3254,-3.3279,-3.3272,-3.3315,-3.3406,-3.3281,-3.3282,-3.3303,-3.3513,-3.3534,-3.3551,-3.3392,-3.3395,-3.3398,-3.351,0,-3.2944,-3.3051,-3.3048,-3.3147,-3.3197,-3.3172,-3.3224,-3.3252,-3.326,-3.3302,-3.331,-3.3358,-3.3321,-3.3336,-3.3377,-3.3387,-3.3448,-3.3379,-3.3438,-3.344,-3.343,-3.3571,-3.3593,-3.3698,-3.3525,-3.3527,-3.3529,0,-3.3088,-3.3127,-3.3232,-3.3261,-3.3281,-3.3329,-3.3372,-3.3413,-3.3443,-3.3446,-3.3474,-3.3461,-3.3521,-3.3471,-3.3553,-3.3505,-3.3529,-3.3538,-3.3542,-3.3546,-3.349,-3.3579,-3.3731,-3.3747,-3.3552,-3.355,-3.3548,0,-3.3182,-3.3261,-3.3333,-3.3352,-3.3387,-3.3421,-3.3437,-3.3465,-3.3493,-3.353,-3.3548,-3.3591,-3.3614,-3.3648,-3.3646,-3.3609,-3.3729,-3.3678,-3.3732,-3.3732,-3.3758,-3.3756,-3.3916,-3.3774,-3.3774,-3.3774,-3.3774,0,-3.3306,-3.3371,-3.3376,-3.342,-3.3492,-3.3487,-3.3558,-3.357,-3.3595,-3.364,-3.3621,-3.3664,-3.3659,-3.3703,-3.3701,-3.3769,-3.378,-3.3783,-3.3782,-3.3785,-3.3784,-3.38,-3.3792,-3.3778,-3.3777,-3.3776,-3.3776,0,-3.3423,-3.3429,-3.3506,-3.3534,-3.3542,-3.3594,-3.3617,-3.3658,-3.3665,-3.3723,-3.3736,-3.3746,-3.3796,-3.3798,-3.3854,-3.3854,-3.3936,-3.3927,-3.3927,-3.3925,-3.3978,-3.3973,-3.4153,-3.4176,-3.402,-3.4022,-3.4023,0,-3.3501,-3.3551,-3.3584,-3.3614,-3.3633,-3.3681,-3.371,-3.3707,-3.3738,-3.3776,-3.3813,-3.3861,-3.3899,-3.398,-3.3991,-3.4034,-3.4025,-3.4086,-3.4032,-3.4033,-3.4026,-3.4023,-3.4027,-3.4096,-3.4098,-3.4099,-3.41,0,-3.364,-3.3641,-3.3684,-3.3729,-3.3764,-3.3799,-3.3831,-3.3856,-3.3857,-3.3892,-3.3944,-3.3974,-3.4032,-3.408,-3.4122,-3.4137,-3.4119,-3.4117,-3.4132,-3.4135,-3.4132,-3.4134,-3.3955,-3.4113,-3.4112,-3.4111,-3.411,-3.4109,-3.374,-3.3782,-3.3813,-3.3861,-3.3885,-3.3916,-3.3957,-3.3969,-3.4012,-3.406,-3.4055,-3.4112,-3.414,-3.4195,-3.4214,-3.4257,-3.4236,-3.4257,-3.4263,-3.4268,-3.4274,-3.4126,-3.4265,-3.4264,-3.4264,-3.4264,-3.4263,0,-3.3877,-3.3895,-3.394,-3.3986,-3.4025,-3.4006,-3.404,-3.4073,-3.4124,-3.4152,-3.419,-3.4249,-3.4295,-3.4311,-3.4355,-3.4387,-3.4379,-3.4399,-3.4396,-3.4399,-3.429,-3.4273,-3.4404,-3.4404,-3.4404,-3.4404,-3.4404,-3.4404,-3.3953,-3.4024,-3.4028,-3.411,-3.4128,-3.4184,-3.4206,-3.4233,-3.4256,-3.4323,-3.4362,-3.4372,-3.4395,-3.4441,-3.4482,-3.4485,-3.4502,-3.4524,-3.4524,-3.4421,-3.4407,-3.4394,-3.4377,-3.4528,-3.4529,-3.463,-3.4631,-3.4632]}]]